Change the Weather History Date:

Wednesday, April 23, 2014

  Actual Average Record
Temperature  
Mean Temperature 55 °F -  
Max Temperature 60 °F 63 °F 80 °F (2002)
Min Temperature 50 °F 41 °F 30 °F (2013)
Degree Days  
Heating Degree Days 10    
Growing Degree Days 5 (Base 50)    
Moisture  
Dew Point 40 °F    
Average Humidity 56    
Maximum Humidity 76    
Minimum Humidity 44    
Precipitation  
Precipitation 0.08 in - - ()
Sea Level Pressure  
Sea Level Pressure 29.87 in    
Wind  
Wind Speed 11 mph (SE)    
Max Wind Speed 26 mph    
Max Gust Speed 39 mph    
Visibility 10 miles    
Events Rain    
Averages and records for this station are not official NWS values.
T = Trace of Precipitation, MM = Missing Value Source: NWS Daily Summary

Daily Weather History Graph

Daily Weather History Graph

Search for Another Location

Airport or City:

Trip Planner

Search our weather history database for the weather conditions in past years. The results will help you decide how hot, cold, wet, or windy it might be!

Date:

Astronomy

Apr. 23, 2014 Rise Set
Actual Time 6:29 AM CDT 8:07 PM CDT
Civil Twilight 6:00 AM CDT 8:37 PM CDT
Nautical Twilight 5:25 AM CDT 9:12 PM CDT
Astronomical Twilight 4:48 AM CDT 9:49 PM CDT
Moon 3:03 AM CDT (4/23) 2:15 PM CDT (4/23)
Length of Visible Light 14h 36m
Length of Day
13h 38m
Waning Crescent, 34% of the Moon is Illuminated
Apr 23
Waning Crescent
Apr 29
New
May 6
First Quarter
May 14
Full
May 21
Last Quarter

Hourly Weather History & Observations

Time (CDT) Temp. Dew Point Humidity Pressure Visibility Wind Dir Wind Speed Gust Speed Precip Events Conditions
12:15 AM 57.2 °F 35.6 °F 44% 30.01 in 10.0 mi ESE 8.1 mph - N/A   Overcast
12:35 AM 57.2 °F 35.6 °F 44% 30.02 in 10.0 mi ESE 6.9 mph - N/A   Mostly Cloudy
12:55 AM 55.4 °F 35.6 °F 47% 30.02 in 10.0 mi ESE 5.8 mph - N/A   Scattered Clouds
1:15 AM 55.4 °F 35.6 °F 47% 30.01 in 10.0 mi ESE 8.1 mph - N/A   Overcast
1:35 AM 55.4 °F 35.6 °F 47% 30.01 in 10.0 mi ESE 6.9 mph - N/A   Overcast
1:55 AM 55.4 °F 35.6 °F 47% 30.01 in 10.0 mi SE 6.9 mph - N/A   Mostly Cloudy
2:15 AM 55.4 °F 35.6 °F 47% 30.01 in 10.0 mi ESE 9.2 mph - N/A   Overcast
2:35 AM 55.4 °F 35.6 °F 47% 30.02 in 10.0 mi SE 6.9 mph - N/A   Overcast
2:55 AM 55.4 °F 33.8 °F 44% 30.02 in 10.0 mi ESE 4.6 mph - N/A   Overcast
3:15 AM 55.4 °F 33.8 °F 44% 30.01 in 10.0 mi ESE 5.8 mph - N/A   Overcast
3:35 AM 55.4 °F 35.6 °F 47% 30.01 in 10.0 mi ESE 9.2 mph - N/A   Overcast
3:55 AM 55.4 °F 35.6 °F 47% 29.99 in 10.0 mi ESE 10.4 mph - N/A   Mostly Cloudy
4:15 AM 55.4 °F 33.8 °F 44% 29.99 in 10.0 mi ESE 10.4 mph - N/A   Overcast
4:35 AM 55.4 °F 33.8 °F 44% 29.98 in 10.0 mi ESE 9.2 mph 18.4 mph N/A   Overcast
4:55 AM 55.4 °F 33.8 °F 44% 29.97 in 10.0 mi SE 13.8 mph 25.3 mph N/A   Overcast
5:15 AM 55.4 °F 33.8 °F 44% 29.97 in 10.0 mi SE 12.7 mph 19.6 mph N/A   Overcast
5:35 AM 53.6 °F 33.8 °F 47% 29.97 in 10.0 mi SE 11.5 mph 19.6 mph N/A   Overcast
5:55 AM 53.6 °F 33.8 °F 47% 29.98 in 10.0 mi SE 8.1 mph 17.3 mph N/A   Overcast
6:15 AM 53.6 °F 33.8 °F 47% 29.99 in 10.0 mi SE 13.8 mph - N/A   Overcast
6:35 AM 53.6 °F 33.8 °F 47% 30.01 in 10.0 mi SSE 11.5 mph 20.7 mph N/A   Overcast
6:55 AM 51.8 °F 35.6 °F 54% 30.00 in 10.0 mi ESE 9.2 mph - N/A   Overcast
7:15 AM 51.8 °F 35.6 °F 54% 30.00 in 10.0 mi SE 11.5 mph 19.6 mph N/A   Overcast
7:35 AM 53.6 °F 33.8 °F 47% 30.01 in 10.0 mi SSE 13.8 mph - N/A   Overcast
7:55 AM 53.6 °F 33.8 °F 47% 30.01 in 10.0 mi SE 10.4 mph - N/A   Overcast
8:15 AM 53.6 °F 33.8 °F 47% 30.01 in 10.0 mi SSE 11.5 mph - N/A   Overcast
8:35 AM 53.6 °F 33.8 °F 47% 30.01 in 10.0 mi SSE 11.5 mph - N/A   Overcast
8:55 AM 53.6 °F 33.8 °F 47% 30.01 in 10.0 mi SE 11.5 mph - N/A   Overcast
9:15 AM 51.8 °F 37.4 °F 58% 30.01 in 7.0 mi SE 9.2 mph 15.0 mph N/A Rain Light Rain
9:35 AM 50.0 °F 39.2 °F 66% 30.01 in 7.0 mi SE 6.9 mph 15.0 mph N/A   Light Drizzle
9:55 AM 50.0 °F 41.0 °F 71% 29.98 in 9.0 mi SE 10.4 mph - 0.02 in   Light Drizzle
10:15 AM 50.0 °F 41.0 °F 71% 29.97 in 9.0 mi SE 12.7 mph 20.7 mph N/A   Overcast
10:35 AM 51.8 °F 41.0 °F 67% 29.95 in 10.0 mi ESE 15.0 mph 23.0 mph N/A   Overcast
10:55 AM 50.0 °F 41.0 °F 71% 29.96 in 8.0 mi SE 12.7 mph 18.4 mph 0.01 in   Mostly Cloudy
11:15 AM 50.0 °F 41.0 °F 71% 29.95 in 8.0 mi SE 12.7 mph 21.9 mph N/A Rain Light Rain
11:35 AM 51.8 °F 41.0 °F 67% 29.92 in 10.0 mi SE 19.6 mph - N/A   Mostly Cloudy
11:55 AM 51.8 °F 41.0 °F 67% 29.93 in 10.0 mi SSE 16.1 mph 24.2 mph 0.01 in   Overcast
12:15 PM 51.8 °F 41.0 °F 67% 29.92 in 10.0 mi SE 13.8 mph 24.2 mph N/A   Overcast
12:35 PM 51.8 °F 41.0 °F 67% 29.89 in - ESE 17.3 mph 26.5 mph N/A   Overcast
1:15 PM 53.6 °F 42.8 °F 67% 29.87 in 10.0 mi SE 12.7 mph 25.3 mph N/A   Mostly Cloudy
1:35 PM 55.4 °F 42.8 °F 63% 29.88 in 10.0 mi SSE 17.3 mph - N/A   Mostly Cloudy
1:55 PM 55.4 °F 41.0 °F 58% 29.89 in 10.0 mi SE 17.3 mph - N/A   Mostly Cloudy
2:15 PM 51.8 °F 44.6 °F 76% 29.87 in 4.0 mi SE 13.8 mph 20.7 mph N/A Rain Light Rain
2:55 PM 51.8 °F 44.6 °F 76% 29.81 in 8.0 mi SE 19.6 mph 33.4 mph 0.02 in   Partly Cloudy
3:15 PM 51.8 °F 44.6 °F 76% 29.80 in 10.0 mi SE 20.7 mph 32.2 mph N/A   Scattered Clouds
3:35 PM 53.6 °F 42.8 °F 67% 29.75 in 10.0 mi SE 26.5 mph 39.1 mph N/A   Scattered Clouds
3:55 PM 53.6 °F 44.6 °F 72% 29.74 in 10.0 mi SE 24.2 mph 35.7 mph 0.02 in   Clear
4:15 PM 55.4 °F 42.8 °F 63% 29.76 in 10.0 mi SSE 15.0 mph 31.1 mph N/A   Partly Cloudy
4:35 PM 55.4 °F 44.6 °F 67% 29.75 in 9.0 mi SSE 12.7 mph 24.2 mph N/A Rain Light Rain
4:55 PM 55.4 °F 44.6 °F 67% 29.75 in 10.0 mi SE 15.0 mph 23.0 mph N/A   Mostly Cloudy
5:15 PM 57.2 °F 44.6 °F 63% 29.75 in 10.0 mi SE 15.0 mph 23.0 mph N/A   Overcast
5:35 PM 57.2 °F 44.6 °F 63% 29.75 in 10.0 mi SE 15.0 mph 26.5 mph N/A   Mostly Cloudy
5:55 PM 59.0 °F 44.6 °F 59% 29.74 in 10.0 mi ESE 17.3 mph - N/A   Partly Cloudy
6:15 PM 59.0 °F 44.6 °F 59% 29.74 in 10.0 mi ESE 15.0 mph 27.6 mph N/A   Clear
6:35 PM 59.0 °F 44.6 °F 59% 29.73 in 10.0 mi ESE 16.1 mph - N/A   Clear
6:55 PM 59.0 °F 44.6 °F 59% 29.71 in 10.0 mi ESE 16.1 mph 24.2 mph N/A   Clear
7:15 PM 59.0 °F 44.6 °F 59% 29.70 in 10.0 mi East 11.5 mph 23.0 mph N/A   Clear
7:35 PM 57.2 °F 44.6 °F 63% 29.70 in 10.0 mi East 5.8 mph - N/A   Light Drizzle
7:55 PM 57.2 °F 44.6 °F 63% 29.69 in 10.0 mi East 8.1 mph - N/A   Partly Cloudy
8:15 PM 57.2 °F 44.6 °F 63% 29.68 in 10.0 mi ESE 8.1 mph - N/A   Clear
8:35 PM 60.8 °F 42.8 °F 52% 29.68 in 10.0 mi ESE 10.4 mph 18.4 mph N/A   Clear
8:55 PM 60.8 °F 42.8 °F 52% 29.68 in 10.0 mi ESE 11.5 mph - N/A   Clear
9:15 PM 60.8 °F 42.8 °F 52% 29.69 in 10.0 mi SE 12.7 mph 20.7 mph N/A   Clear
9:35 PM 60.8 °F 41.0 °F 48% 29.69 in 10.0 mi SE 12.7 mph 18.4 mph N/A   Clear
9:55 PM 60.8 °F 41.0 °F 48% 29.71 in 10.0 mi SE 11.5 mph 19.6 mph N/A   Clear
10:15 PM 60.8 °F 41.0 °F 48% 29.71 in 10.0 mi SE 10.4 mph - N/A   Partly Cloudy
10:35 PM 59.0 °F 42.8 °F 55% 29.70 in 10.0 mi SE 12.7 mph 21.9 mph N/A   Mostly Cloudy
10:55 PM 59.0 °F 42.8 °F 55% 29.70 in 10.0 mi SSE 13.8 mph 19.6 mph N/A   Mostly Cloudy
11:15 PM 59.0 °F 42.8 °F 55% 29.70 in 10.0 mi SE 12.7 mph 21.9 mph N/A   Mostly Cloudy
11:35 PM 59.0 °F 42.8 °F 55% 29.69 in 10.0 mi SE 12.7 mph 20.7 mph N/A   Mostly Cloudy
11:55 PM 59.0 °F 42.8 °F 55% 29.68 in 10.0 mi SE 13.8 mph - N/A   Mostly Cloudy